FW6665 Weather Reports


time (UTC)temp
C
wind
direction
speed
KPH
gust
KPH
rain 1hr
cm
rain 24hr
cm
rain mn
cm
humidity
%
barometer
mb
20260510153704 12 354 1.6 4.8 0.00 0.00 0.00 68 1012.5
20260510152704 12 288 1.6 4.8 0.00 0.00 0.00 70 1012.6
20260510152205 12 314 0.0 6.4 0.00 0.00 0.00 71 1012.7
20260510151704 12 313 1.6 6.4 0.00 0.00 0.00 72 1012.7
20260510151204 11 313 0.0 6.4 0.00 0.00 0.00 71 1012.9
20260510150704 11 313 1.6 8.0 0.00 0.00 0.00 71 1012.9
20260510150204 11 329 0.0 8.0 0.00 0.00 0.00 71 1013.0
20260510145703 12 326 1.6 8.0 0.00 0.00 0.00 71 1013.1
20260510144705 12 306 0.0 6.4 0.00 0.00 0.00 70 1013.1
20260510143703 12 326 1.6 6.4 0.00 0.00 0.00 69 1013.3
20260510143204 12 327 1.6 6.4 0.00 0.00 0.00 69 1013.2
20260510142205 12 323 1.6 4.8 0.00 0.00 0.00 70 1013.4
20260510141704 12 323 1.6 4.8 0.00 0.00 0.00 69 1013.3
20260510141204 12 337 1.6 6.4 0.00 0.00 0.00 69 1013.4
20260510140704 12 330 1.6 6.4 0.00 0.00 0.00 69 1013.5
20260510140205 12 327 0.0 8.0 0.00 0.00 0.00 70 1013.5
20260510135704 12 324 1.6 8.0 0.00 0.00 0.00 69 1013.4
20260510135208 12 350 3.2 8.0 0.00 0.00 0.00 69 1013.5
20260510134205 12 347 0.0 8.0 0.00 0.00 0.00 69 1013.5
20260510133704 12 334 1.6 8.0 0.00 0.00 0.00 69 1013.6
20260510133207 12 338 0.0 8.0 0.00 0.00 0.00 69 1013.5
20260510132703 12 337 1.6 11.3 0.00 0.00 0.00 69 1013.5
20260510132204 12 358 3.2 11.3 0.00 0.00 0.00 69 1013.6
20260510131704 12 337 0.0 14.5 0.00 0.00 0.00 69 1013.7
20260510131205 12 336 3.2 14.5 0.00 0.00 0.00 70 1013.6
20260510130705 12 313 3.2 9.7 0.00 0.00 0.00 70 1013.7
20260510130204 12 306 0.0 9.7 0.00 0.00 0.00 70 1013.8
20260510125706 12 323 1.6 9.7 0.00 0.00 0.00 70 1013.9
20260510125204 12 309 1.6 9.7 0.00 0.00 0.00 70 1013.9
20260510124705 12 21 1.6 8.0 0.00 0.00 0.00 70 1014.0
20260510124205 12 31 1.6 8.0 0.00 0.00 0.00 70 1014.1
20260510123704 12 11 1.6 8.0 0.00 0.00 0.00 69 1014.0
20260510123204 12 336 3.2 8.0 0.00 0.00 0.00 69 1014.1
20260510121705 12 289 1.6 8.0 0.00 0.00 0.00 70 1014.0
20260510121205 12 321 3.2 8.0 0.00 0.00 0.00 69 1014.0
20260510120204 12 299 1.6 8.0 0.00 0.00 0.00 70 1014.2
20260510115705 13 327 3.2 8.0 0.00 0.00 0.00 69 1014.2
20260510115204 13 8 1.6 8.0 0.00 0.00 0.00 70 1014.2
20260510114705 13 20 3.2 8.0 0.00 0.00 0.00 70 1014.2
20260510114204 13 347 3.2 6.4 0.00 0.00 0.00 70 1014.3
20260510113705 13 324 3.2 9.7 0.00 0.00 0.00 71 1014.2
20260510113205 13 327 1.6 9.7 0.00 0.00 0.00 71 1014.2
20260510112205 12 0 3.2 9.7 0.00 0.00 0.00 72 1014.4
20260510111705 12 329 0.0 9.7 0.00 0.00 0.00 72 1014.5
20260510111205 12 337 3.2 9.7 0.00 0.00 0.00 72 1014.6
20260510110703 12 350 1.6 8.0 0.00 0.00 0.00 73 1014.6
20260510110205 12 324 1.6 6.4 0.00 0.00 0.00 73 1014.5
20260510105704 12 314 1.6 6.4 0.00 0.00 0.00 72 1014.5
20260510105204 12 320 0.0 11.3 0.00 0.00 0.00 71 1014.6
20260510104704 12 343 3.2 11.3 0.00 0.00 0.00 71 1014.6
20260510104205 12 350 1.6 11.3 0.00 0.00 0.00 71 1014.6
20260510103704 12 347 1.6 6.4 0.00 0.00 0.00 72 1014.6
20260510103204 12 348 1.6 6.4 0.00 0.00 0.00 72 1014.6
20260510102705 12 358 1.6 6.4 0.00 0.00 0.00 71 1014.6
20260510102204 12 0 0.0 9.7 0.00 0.00 0.00 72 1014.7
20260510101704 12 345 0.0 11.3 0.00 0.00 0.00 72 1014.5
20260510101204 12 345 1.6 11.3 0.00 0.00 0.00 73 1014.6
20260510100204 12 320 3.2 8.0 0.00 0.00 0.00 72 1014.4
20260510095705 12 340 3.2 8.0 0.00 0.00 0.00 72 1014.6
20260510095204 12 336 3.2 8.0 0.00 0.00 0.00 71 1014.5
20260510094204 13 305 1.6 6.4 0.00 0.00 0.00 71 1014.5
20260510093706 12 316 1.6 6.4 0.00 0.00 0.00 71 1014.5
20260510093205 12 340 1.6 6.4 0.00 0.00 0.00 71 1014.6
20260510092704 12 319 1.6 9.7 0.00 0.00 0.00 71 1014.6
20260510091704 12 350 3.2 8.0 0.00 0.00 0.00 71 1014.7
20260510091204 12 345 3.2 8.0 0.00 0.00 0.00 72 1014.7
20260510090705 12 316 1.6 8.0 0.00 0.00 0.00 73 1014.8
20260510090204 12 306 1.6 8.0 0.00 0.00 0.00 74 1014.8
20260510085704 12 254 3.2 8.0 0.00 0.00 0.00 73 1014.9
20260510085204 12 6 3.2 8.0 0.00 0.00 0.00 74 1015.0
20260510084704 12 343 1.6 8.0 0.00 0.00 0.00 74 1015.0
20260510084205 12 344 3.2 8.0 0.00 0.00 0.00 74 1015.0
20260510083204 12 323 3.2 14.5 0.00 0.00 0.00 74 1015.1
20260510081205 11 336 1.6 6.4 0.00 0.00 0.00 78 1015.0
20260510080705 11 312 1.6 6.4 0.00 0.00 0.00 78 1015.0
20260510080204 11 309 1.6 6.4 0.00 0.00 0.00 79 1015.1
20260510075704 11 306 3.2 8.0 0.00 0.00 0.00 79 1015.1
20260510074705 11 326 3.2 6.4 0.00 0.00 0.00 79 1015.0
20260510074204 11 327 1.6 6.4 0.00 0.00 0.00 80 1015.1
20260510073704 11 319 1.6 6.4 0.00 0.00 0.00 80 1015.1
20260510073204 11 319 3.2 8.0 0.00 0.00 0.00 80 1015.1
20260510072704 11 331 1.6 8.0 0.00 0.00 0.00 80 1015.1
20260510072205 11 320 1.6 4.8 0.00 0.00 0.00 81 1015.1
20260510071704 11 321 0.0 6.4 0.00 0.00 0.00 81 1015.0
20260510071204 11 321 1.6 6.4 0.00 0.00 0.00 81 1015.0
20260510070704 10 354 0.0 6.4 0.00 0.00 0.00 81 1015.0
20260510065705 10 353 1.6 8.0 0.00 0.00 0.00 82 1015.1
20260510065204 10 320 1.6 8.0 0.00 0.00 0.00 82 1015.1
20260510064204 10 279 3.2 11.3 0.00 0.00 0.00 82 1015.1
20260510063709 10 323 1.6 11.3 0.00 0.00 0.00 82 1015.2
20260510063205 10 296 1.6 11.3 0.00 0.00 0.00 82 1015.0
20260510062706 10 319 0.0 4.8 0.00 0.00 0.00 82 1015.1
20260510062203 10 319 0.0 8.0 0.00 0.00 0.00 82 1015.0
20260510061705 10 312 0.0 11.3 0.00 0.00 0.00 82 1015.0
20260510061204 10 312 1.6 11.3 0.00 0.00 0.00 83 1014.9
20260510060705 10 317 3.2 11.3 0.00 0.00 0.00 82 1014.9
20260510060204 10 293 3.2 9.7 0.00 0.00 0.00 83 1014.8
20260510055704 10 0 3.2 9.7 0.00 0.00 0.00 83 1014.8
20260510055204 10 329 0.0 9.7 0.00 0.00 0.00 83 1014.7
20260510054705 10 327 1.6 9.7 0.00 0.00 0.00 83 1014.7
20260510054205 10 299 1.6 9.7 0.00 0.00 0.00 83 1014.7
20260510053704 10 293 1.6 6.4 0.00 0.00 0.00 83 1014.6
20260510053204 9 309 0.0 6.4 0.00 0.00 0.00 83 1014.7
20260510052704 9 317 1.6 6.4 0.00 0.00 0.00 83 1014.6
20260510052204 9 303 0.0 6.4 0.00 0.00 0.00 83 1014.6
20260510051705 9 303 0.0 6.4 0.00 0.00 0.00 83 1014.6
20260510051204 9 302 1.6 6.4 0.00 0.00 0.00 83 1014.7
20260510050705 9 334 0.0 8.0 0.00 0.00 0.00 83 1014.7
20260510050204 9 338 1.6 8.0 0.00 0.00 0.00 83 1014.5
20260510045704 9 310 1.6 8.0 0.00 0.00 0.00 83 1014.6
20260510044205 9 319 0.0 8.0 0.00 0.00 0.00 83 1014.6
20260510043705 9 319 1.6 4.8 0.00 0.00 0.00 83 1014.7
20260510043205 9 329 1.6 6.4 0.00 0.00 0.00 83 1014.7
20260510042705 9 326 0.0 6.4 0.00 0.00 0.00 83 1014.7
20260510042204 9 326 0.0 6.4 0.00 0.00 0.00 82 1014.7
20260510041704 9 326 0.0 8.0 0.00 0.00 0.00 82 1014.8
20260510041204 9 326 0.0 8.0 0.00 0.00 0.00 82 1014.8
20260510040705 9 336 0.0 8.0 0.00 0.00 0.00 82 1014.8
20260510040205 9 298 1.6 8.0 0.00 0.00 0.00 82 1014.9
20260510035707 9 341 1.6 6.4 0.00 0.00 0.00 82 1014.9
20260510035204 9 307 0.0 4.8 0.00 0.00 0.00 82 1014.9
20260510034704 9 0 0.0 8.0 0.00 0.00 0.00 82 1015.0
20260510034204 9 348 0.0 8.0 0.00 0.00 0.00 82 1015.0
20260510033705 9 348 0.0 8.0 0.00 0.00 0.00 82 1015.0
20260510033204 9 292 1.6 8.0 0.00 0.00 0.00 82 1015.1
20260510032704 9 288 1.6 8.0 0.00 0.00 0.00 82 1015.1
20260510032204 9 0 1.6 8.0 0.00 0.00 0.00 82 1015.1
20260510031704 9 0 0.0 8.0 0.00 0.00 0.00 82 1015.1
20260510031204 9 4 3.2 6.4 0.00 0.00 0.00 83 1015.1
20260510030704 9 337 1.6 3.2 0.00 0.00 0.00 83 1015.3
20260510025706 9 323 0.0 9.7 0.00 0.00 0.00 83 1015.2
20260510024204 9 299 1.6 11.3 0.00 0.00 0.00 83 1015.3
20260510023705 9 319 1.6 6.4 0.00 0.00 0.00 83 1015.3
20260510023204 9 317 1.6 8.0 0.00 0.00 0.00 83 1015.2
20260510022704 9 337 0.0 8.0 0.00 0.00 0.00 83 1015.2
20260510022204 9 345 1.6 8.0 0.00 0.00 0.00 83 1015.1
20260510021204 9 0 1.6 8.0 0.00 0.00 0.00 83 1015.1
20260510015704 9 306 0.0 6.4 0.00 0.00 0.00 82 1015.1
20260510014703 10 316 0.0 3.2 0.00 0.00 0.00 82 1015.2
20260510014204 10 316 0.0 3.2 0.00 0.00 0.00 82 1015.3
20260510013704 10 316 0.0 3.2 0.00 0.00 0.00 82 1015.4
20260510013205 10 316 0.0 3.2 0.00 0.00 0.00 82 1015.4
20260510012705 10 316 0.0 3.2 0.00 0.00 0.00 82 1015.3
20260510011704 10 319 0.0 3.2 0.00 0.00 0.00 81 1015.4
20260510011204 10 319 0.0 3.2 0.00 0.00 0.00 81 1015.3
20260510010705 10 319 0.0 4.8 0.00 0.00 0.00 80 1015.3
20260510010205 10 320 0.0 4.8 0.00 0.00 0.00 80 1015.2
20260510005704 10 320 0.0 4.8 0.00 0.00 0.00 79 1015.2
20260510005207 10 329 0.0 3.2 0.00 0.00 0.00 79 1015.2
20260510004704 10 330 0.0 3.2 0.00 0.00 0.00 78 1015.1
20260510004207 10 331 0.0 3.2 0.00 0.00 0.00 78 1015.1
20260510003704 10 334 0.0 6.4 0.00 0.00 0.00 77 1015.1
20260510002704 10 334 0.0 6.4 0.00 0.00 0.00 76 1015.2
20260510001704 10 25 0.0 4.8 0.00 0.00 0.00 74 1015.4
20260510001204 11 25 0.0 4.8 0.00 0.00 0.00 74 1015.3
20260510000705 11 56 0.0 4.8 0.00 0.00 0.00 74 1015.3
20260510000205 11 75 0.0 4.8 0.00 0.00 0.00 74 1015.3
20260509235204 11 79 0.0 3.2 0.00 0.00 0.00 75 1015.3
20260509234707 11 79 0.0 3.2 0.00 0.00 0.00 75 1015.3
20260509234204 11 85 0.0 3.2 0.00 0.00 0.00 75 1015.2
20260509233704 11 85 0.0 3.2 0.00 0.00 0.00 75 1015.1
20260509233205 11 85 0.0 4.8 0.00 0.00 0.00 75 1015.3
20260509232204 11 86 0.0 4.8 0.00 0.00 0.00 75 1015.5
20260509231704 11 97 0.0 3.2 0.00 0.00 0.00 74 1015.4
20260509230705 11 97 0.0 3.2 0.00 0.00 0.00 73 1015.5
20260509230204 11 97 0.0 3.2 0.00 0.00 0.00 72 1015.4
20260509225704 11 97 0.0 1.6 0.00 0.00 0.00 72 1015.5
20260509225205 11 97 0.0 1.6 0.00 0.00 0.00 71 1015.4
20260509224704 11 97 0.0 1.6 0.00 0.00 0.00 71 1015.3
20260509223204 11 97 0.0 3.2 0.00 0.00 0.00 70 1015.3
20260509222706 11 97 0.0 3.2 0.00 0.00 0.00 69 1015.2
20260509222204 12 97 0.0 3.2 0.00 0.00 0.00 69 1015.2
20260509221704 12 96 0.0 3.2 0.00 0.00 0.00 68 1015.3
20260509221205 12 97 0.0 3.2 0.00 0.00 0.00 67 1015.2
20260509220705 12 97 0.0 3.2 0.00 0.00 0.00 67 1015.4
20260509220204 12 97 0.0 3.2 0.00 0.00 0.00 66 1015.3
20260509215704 12 96 0.0 1.6 0.00 0.00 0.00 66 1015.3
20260509215205 12 96 0.0 1.6 0.00 0.00 0.00 65 1015.3
20260509214705 12 96 0.0 1.6 0.00 0.00 0.00 65 1015.3
20260509214205 12 96 0.0 1.6 0.00 0.00 0.00 64 1015.4
20260509213705 12 96 0.0 1.6 0.00 0.00 0.00 63 1015.3
20260509213204 12 96 0.0 1.6 0.00 0.00 0.00 63 1015.3
20260509212704 12 96 0.0 1.6 0.00 0.00 0.00 63 1015.2
20260509212205 12 96 0.0 1.6 0.00 0.00 0.00 62 1015.2
20260509211705 12 96 0.0 1.6 0.00 0.00 0.00 62 1015.2
20260509211204 12 96 0.0 1.6 0.00 0.00 0.00 61 1015.1
20260509210704 12 96 0.0 1.6 0.00 0.00 0.00 61 1015.0
20260509210204 12 96 0.0 1.6 0.00 0.00 0.00 60 1014.8
20260509204704 13 96 0.0 3.2 0.00 0.00 0.00 59 1014.9
20260509204204 13 96 0.0 3.2 0.00 0.00 0.00 59 1014.9
20260509203205 13 96 0.0 1.6 0.00 0.00 0.00 59 1014.8
20260509202704 13 96 0.0 1.6 0.00 0.00 0.00 58 1014.7
20260509202206 13 96 0.0 1.6 0.00 0.00 0.00 58 1014.8
20260509201704 13 96 0.0 3.2 0.00 0.00 0.00 58 1014.7
20260509201205 13 96 0.0 3.2 0.00 0.00 0.00 57 1014.8
20260509200704 13 96 0.0 4.8 0.00 0.00 0.00 57 1014.7
20260509200204 13 96 0.0 4.8 0.00 0.00 0.00 57 1014.7
20260509195704 13 96 0.0 4.8 0.00 0.00 0.00 57 1014.7
20260509195204 13 106 1.6 3.2 0.00 0.00 0.00 57 1014.7
20260509194704 13 106 0.0 3.2 0.00 0.00 0.00 56 1014.6
20260509194203 14 106 0.0 6.4 0.00 0.00 0.00 56 1014.7
20260509193704 14 104 0.0 6.4 0.00 0.00 0.00 55 1014.6
20260509193205 14 104 0.0 6.4 0.00 0.00 0.00 54 1014.4
20260509192704 14 103 1.6 6.4 0.00 0.00 0.00 53 1014.4
20260509192205 14 103 1.6 6.4 0.00 0.00 0.00 52 1014.4
20260509191704 15 166 0.0 6.4 0.00 0.00 0.00 51 1014.4
20260509191205 15 168 0.0 6.4 0.00 0.00 0.00 50 1014.5
20260509190204 15 134 1.6 6.4 0.00 0.00 0.00 49 1014.4
20260509185704 15 133 1.6 6.4 0.00 0.00 0.00 49 1014.4
20260509185206 15 109 1.6 6.4 0.00 0.00 0.00 49 1014.4
20260509184705 16 106 0.0 4.8 0.00 0.00 0.00 48 1014.5
20260509184205 16 107 1.6 8.0 0.00 0.00 0.00 48 1014.4
20260509183705 16 103 1.6 8.0 0.00 0.00 0.00 49 1014.3
20260509183204 16 106 0.0 8.0 0.00 0.00 0.00 49 1014.3
20260509182709 16 106 1.6 4.8 0.00 0.00 0.00 48 1014.3
20260509181705 16 135 1.6 4.8 0.00 0.00 0.00 48 1014.3
20260509181205 16 130 1.6 4.8 0.00 0.00 0.00 48 1014.3
20260509180705 17 144 1.6 4.8 0.00 0.00 0.00 48 1014.3
20260509180204 17 142 1.6 6.4 0.00 0.00 0.00 47 1014.1
20260509175705 17 118 1.6 6.4 0.00 0.00 0.00 47 1014.0
20260509174205 17 97 1.6 9.7 0.00 0.00 0.00 47 1013.9
20260509173704 17 118 1.6 6.4 0.00 0.00 0.00 46 1014.0
20260509173214 17 128 3.2 4.8 0.00 0.00 0.00 46 1014.0
20260509172705 17 125 1.6 4.8 0.00 0.00 0.00 46 1014.0
20260509171704 17 89 1.6 8.0 0.00 0.00 0.00 46 1014.1
20260509171204 18 94 3.2 9.7 0.00 0.00 0.00 44 1014.1
20260509170705 18 164 1.6 9.7 0.00 0.00 0.00 44 1014.2
20260509170205 18 107 1.6 9.7 0.00 0.00 0.00 43 1014.2
20260509165704 18 140 1.6 8.0 0.00 0.00 0.00 42 1014.3
20260509165204 18 116 3.2 8.0 0.00 0.00 0.00 40 1014.3
20260509164705 19 162 1.6 8.0 0.00 0.00 0.00 41 1014.2
20260509164204 19 107 1.6 6.4 0.00 0.00 0.00 41 1014.1
20260509163714 19 83 3.2 4.8 0.00 0.00 0.00 41 1014.0
20260509162204 20 94 1.6 16.1 0.00 0.00 0.00 43 1014.1
20260509161204 20 42 3.2 16.1 0.00 0.00 0.00 42 1014.2
20260509160704 20 134 3.2 9.7 0.00 0.00 0.00 41 1014.3
20260509160204 20 141 3.2 8.0 0.00 0.00 0.00 42 1014.4
20260509155705 20 158 3.2 8.0 0.00 0.00 0.00 42 1014.3
20260509155204 20 113 1.6 11.3 0.00 0.00 0.00 42 1014.3
20260509154705 20 197 3.2 11.3 0.00 0.00 0.00 40 1014.3
20260509154204 20 128 1.6 11.3 0.00 0.00 0.00 41 1014.3